FW0765 Weather Reports


Display with metric or nautical units.
time (UTC)temp
F
wind
direction
speed
MPH
gust
MPH
rain 1hr
in
rain 24hr
in
rain mn
in
humidity
%
barometer
mb
20210624204550 91 148 13.0 23.0 0.00 0.00 0.00 51 1009.2
20210624203049 90 162 9.0 20.0 0.00 0.00 0.00 52 1009.3
20210624201544 90 157 11.0 24.0 0.00 0.00 0.00 52 1009.4
20210624200037 89 130 13.0 23.0 0.00 0.00 0.00 54 1009.5
20210624194558 89 180 13.0 26.0 0.00 0.00 0.00 53 1009.8
20210624193146 89 164 10.0 24.0 0.00 0.00 0.00 54 1009.8
20210624191540 89 144 10.0 21.0 0.00 0.00 0.00 54 1010.0
20210624190031 89 134 8.0 22.0 0.00 0.00 0.00 54 1010.0
20210624184538 89 169 10.0 20.0 0.00 0.00 0.00 54 1010.3
20210624183037 89 205 14.0 24.0 0.00 0.00 0.00 55 1010.4
20210624181538 89 190 11.0 23.0 0.00 0.00 0.00 56 1010.6
20210624180054 88 180 8.0 26.0 0.00 0.00 0.00 56 1010.8
20210624174520 88 107 12.0 22.0 0.00 0.00 0.00 57 1010.8
20210624173034 87 167 15.0 23.0 0.00 0.00 0.00 58 1011.0
20210624171513 86 178 14.0 21.0 0.00 0.00 0.00 59 1011.0
20210624170037 86 164 11.0 21.0 0.00 0.00 0.00 60 1011.0
20210624164516 86 131 8.0 18.0 0.00 0.00 0.00 60 1011.0
20210624163016 86 173 5.0 19.0 0.00 0.00 0.00 61 1011.0
20210624161505 85 198 7.0 21.0 0.00 0.00 0.00 62 1011.0
20210624160004 85 156 10.0 18.0 0.00 0.00 0.00 63 1011.0
20210624154713 83 200 8.0 17.0 0.00 0.00 0.00 65 1011.3
20210624154502 83 173 7.0 17.0 0.00 0.00 0.00 65 1011.3
20210624153227 82 202 8.0 19.0 0.00 0.00 0.00 67 1011.4
20210624153018 82 167 10.0 19.0 0.00 0.00 0.00 66 1011.4
20210624151621 82 213 11.0 23.0 0.00 0.00 0.00 67 1011.3
20210624150119 82 168 6.0 23.0 0.00 0.00 0.00 68 1011.3
20210624144658 81 165 11.0 22.0 0.00 0.00 0.00 69 1011.1
20210624143118 81 171 13.0 21.0 0.00 0.00 0.00 70 1011.0
20210624141657 80 159 11.0 21.0 0.00 0.00 0.00 71 1011.4
20210624140143 79 132 16.0 29.0 0.00 0.00 0.00 72 1011.4
20210624134641 79 167 11.0 23.0 0.00 0.00 0.00 74 1011.3
20210624133134 78 178 8.0 21.0 0.00 0.00 0.00 75 1011.2
20210624131559 77 186 14.0 20.0 0.00 0.00 0.00 76 1011.3
20210624130128 77 177 10.0 21.0 0.00 0.00 0.00 79 1011.2
20210624124612 76 162 3.0 14.0 0.00 0.00 0.00 81 1011.2
20210624123102 75 188 1.0 11.0 0.00 0.00 0.00 82 1011.2
20210624121604 75 153 0.0 9.0 0.00 0.00 0.00 82 1011.2
20210624120042 75 169 0.0 2.0 0.00 0.00 0.00 82 1011.0
20210624114642 75 200 0.0 5.0 0.00 0.00 0.00 81 1011.0
20210624113112 76 171 0.0 12.0 0.00 0.00 0.00 81 1011.1
20210624111631 76 185 1.0 8.0 0.00 0.00 0.00 80 1010.9
20210624110104 76 185 3.0 12.0 0.00 0.00 0.00 80 1010.7
20210624104536 76 149 4.0 14.0 0.00 0.00 0.00 79 1010.6
20210624103038 77 161 10.0 19.0 0.00 0.00 0.00 79 1010.6
20210624101600 77 159 1.0 16.0 0.00 0.00 0.00 79 1010.5
20210624100023 77 157 9.0 22.0 0.00 0.00 0.00 79 1010.5
20210624094534 77 180 4.0 19.0 0.00 0.00 0.00 78 1010.4
20210624093021 78 152 8.0 19.0 0.00 0.00 0.00 77 1010.4
20210624091511 78 167 1.0 18.0 0.00 0.00 0.00 76 1010.3
20210624090035 79 140 11.0 21.0 0.00 0.00 0.00 75 1010.3
20210624084505 79 156 9.0 15.0 0.00 0.00 0.00 75 1010.3
20210624081706 80 159 7.0 17.0 0.00 0.00 0.00 74 1010.4
20210624080108 80 165 8.0 19.0 0.00 0.00 0.00 75 1010.3
20210624074737 80 172 3.0 21.0 0.00 0.00 0.00 76 1010.3
20210624073120 80 136 7.0 20.0 0.00 0.00 0.00 75 1010.5
20210624071616 81 131 6.0 18.0 0.00 0.00 0.00 74 1010.4
20210624070054 81 166 10.0 18.0 0.00 0.00 0.00 72 1010.7
20210624064813 81 167 1.0 14.0 0.00 0.00 0.00 71 1010.7
20210624063205 82 171 3.0 11.0 0.00 0.00 0.00 69 1010.8
20210624061559 82 171 5.0 15.0 0.00 0.00 0.00 67 1010.7
20210624060042 83 142 3.0 15.0 0.00 0.00 0.00 66 1010.6
20210624054542 83 144 0.0 14.0 0.00 0.00 0.00 66 1010.7
20210624053050 83 178 2.0 13.0 0.00 0.00 0.00 65 1010.6
20210624051538 84 198 4.0 14.0 0.00 0.00 0.00 64 1010.8
20210624044607 84 150 7.0 17.0 0.00 0.00 0.00 60 1010.7
20210624043038 85 142 2.0 12.0 0.00 0.00 0.00 59 1010.6
20210624041538 84 126 0.0 10.0 0.00 0.00 0.00 59 1010.6
20210624040024 84 166 0.0 7.0 0.00 0.00 0.00 59 1010.5
20210624034524 83 140 0.0 3.0 0.00 0.00 0.00 60 1010.3
20210624033106 83 140 0.0 3.0 0.00 0.00 0.00 59 1010.1
20210624031542 84 128 0.0 0.0 0.00 0.00 0.00 57 1010.0
20210624030025 85 154 0.0 0.0 0.00 0.00 0.00 55 1009.8
20210624024528 86 157 0.0 0.0 0.00 0.00 0.00 53 1009.6
20210624023021 87 157 0.0 2.0 0.00 0.00 0.00 52 1009.4
20210624021519 88 157 0.0 5.0 0.00 0.00 0.00 50 1009.2
20210624020029 89 140 4.0 7.0 0.00 0.00 0.00 48 1009.2
20210624014527 90 161 2.0 7.0 0.00 0.00 0.00 46 1009.1
20210624013020 91 168 0.0 13.0 0.00 0.00 0.00 45 1009.2
20210624011531 92 128 5.0 14.0 0.00 0.00 0.00 44 1008.8
20210624010011 92 159 2.0 15.0 0.00 0.00 0.00 43 1008.7
20210624004511 93 148 4.0 15.0 0.00 0.00 0.00 43 1008.6
20210624003015 93 119 9.0 15.0 0.00 0.00 0.00 43 1008.4
20210624001529 94 130 3.0 17.0 0.00 0.00 0.00 44 1008.4
20210624000005 94 137 10.0 16.0 0.00 0.00 0.00 43 1008.4
20210623234513 94 124 10.0 18.0 0.00 0.00 0.00 43 1008.4
20210623233015 95 159 7.0 18.0 0.00 0.00 0.00 42 1008.3
20210623231504 94 186 8.0 19.0 0.00 0.00 0.00 43 1008.5
20210623230143 95 171 7.0 16.0 0.00 0.00 0.00 42 1008.7
20210623224723 94 194 11.0 19.0 0.00 0.00 0.00 42 1008.8
20210623223139 94 168 8.0 18.0 0.00 0.00 0.00 43 1009.0
20210623223002 94 178 6.0 18.0 0.00 0.00 0.00 43 1008.9
20210623221629 94 140 8.0 18.0 0.00 0.00 0.00 43 1008.9
20210623220113 95 147 6.0 17.0 0.00 0.00 0.00 43 1009.1
20210623214641 95 182 9.0 20.0 0.00 0.00 0.00 43 1009.2
20210623213138 94 192 4.0 20.0 0.00 0.00 0.00 43 1009.3
20210623211609 94 197 8.0 22.0 0.00 0.00 0.00 45 1009.4
20210623210134 93 167 4.0 20.0 0.00 0.00 0.00 46 1009.7